Location: Newark
(48.6461°N, 4.3644°W)
Time: 14:39:38
(UTC+00:00)

A-11 Canister half - Pass Details

Date: 31 January 2020
Orbit: 1517 x 1683 km, 47.2° (Epoch: 28 February)

Event Time Altitude Azimuth Distance (km) Brightness Sun altitude
Rises 20:01:48 0° 184° (S) 4,804 11.6 -27.9°
Reaches altitude 10° 20:06:12 10° 167° (SSE) 3,791 10.9 -28.6°
Enters shadow 20:07:28 13° 161° (SSE) 3,560 10.7 -28.8°
